Simultaneous Nadir Overpasses (SNOs) Predictions

Prediction of SNOs between LANDSAT-8 and NPP Satellite Orbit:

Table of predicted SNOs for the next 14.0 days since TLE Epoch: 3/4/2023
Index Date (LANDSAT-8) Time (LANDSAT-8) Lat,Lon (LANDSAT-8) SZA (LANDSAT-8 ) Date (NPP) Time (NPP) Lat,Lon (NPP) SZA (NPP ) Distance(km) Time Diff (sec)
1 03/04/2023 05:19:19 70.84, 97.59 77.36 03/04/2023 05:18:10 70.88, 95.99 77.47 58.61 69
2 03/04/2023 06:08:58 -70.22, -95.69 103.24 03/04/2023 06:08:41 -70.21, -95.62 103.25 2.72 17
3 03/04/2023 06:58:25 70.13, 71.82 76.66 03/04/2023 06:59:26 70.14, 71.80 76.67 2.06 61
4 03/06/2023 21:35:56 70.30,-147.33 75.81 03/06/2023 21:34:59 70.29,-147.30 75.81 1.62 57
5 03/06/2023 22:25:26 -70.18, 20.13 104.32 03/06/2023 22:25:41 -70.20, 20.16 104.31 2.41 15
6 03/06/2023 23:15:05 69.42,-173.28 74.95 03/06/2023 23:16:12 69.39,-171.32 74.83 76.63 67
7 03/09/2023 13:52:23 70.26, -31.50 74.72 03/09/2023 13:51:58 70.24, -31.46 74.70 2.92 25
8 03/09/2023 14:41:53 -70.15, 135.97 105.41 03/09/2023 14:42:40 -70.15, 136.00 105.41 1.30 47
9 03/12/2023 05:19:21 -70.34, -83.14 106.25 03/12/2023 05:18:12 -70.32, -83.13 106.26 2.19 69
10 03/12/2023 06:08:48 70.23, 84.35 73.64 03/12/2023 06:08:56 70.20, 84.36 73.61 3.22 8
11 03/12/2023 06:58:22 -69.90,-108.49 106.69 03/12/2023 06:59:34 -69.90,-107.86 106.73 24.04 72
12 03/14/2023 21:35:47 -70.27, 32.65 107.38 03/14/2023 21:35:11 -70.30, 32.66 107.34 3.32 36
13 03/14/2023 22:25:14 70.16,-159.87 72.51 03/14/2023 22:25:55 70.19,-159.85 72.53 2.98 41
14 03/17/2023 13:02:41 70.37, -18.94 71.67 03/17/2023 13:01:28 70.39, -19.04 71.71 4.30 73
15 03/17/2023 13:52:11 -70.26, 148.53 108.45 03/17/2023 13:52:09 -70.24, 148.52 108.47 2.47 2
16 03/17/2023 14:41:39 70.09, -44.06 71.38 03/17/2023 14:42:52 70.08, -43.92 71.35 5.74 73



Historial Predications of SNOs between LANDSAT-8 and NPP
